User: anonymous   Login
Location: Luz Observatory
(34.5000°N, 117.2833°W)
Time: 11:13:19
(UTC-07:00)
Language:

Cosmos 1452 Rocket - Orbit

View from above orbital plane
View from above orbital plane
View from above satellite
View from above satellite

Ground track
Ground track

The orbit data is extracted from the following two-line orbital elements,

1 13992U 83031B   14303.09831719  .00000285  00000-0  10739-3 0  5497
2 13992 074.0532 329.6109 0005160 204.8452 213.8210 14.35799770650857
Epoch (UTC): 30 October 2014 02:21:34
Eccentricity: 0.0005160
inclination: 74.0532°
perigee height: 769 km
apogee height: 776 km
right ascension of ascending node: 329.6109°
argument of perigee: 204.8452°
revolutions per day: 14.35799770
mean anomaly at epoch: 213.8210°
orbit number at epoch: 65085

The dashed part of the orbit path shows where the satellite is in the earth's shadow,  

DLR